Weather History for KSMP - February, 2012

Change the Weather History Date:

Friday, February 24, 2012

  Actual Average Record
Temperature  
Mean Temperature 29 °F -  
Max Temperature 32 °F 32 °F 51 °F (2005)
Min Temperature 26 °F 24 °F 6 °F (2011)
Degree Days  
Heating Degree Days 36    
Moisture  
Dew Point 29 °F    
Average Humidity 95    
Maximum Humidity 100    
Minimum Humidity 92    
Precipitation  
Precipitation 0.35 in - - ()
Sea Level Pressure  
Sea Level Pressure 29.72 in    
Wind  
Wind Speed 3 mph (WNW)    
Max Wind Speed 12 mph    
Max Gust Speed 24 mph    
Visibility 2 miles    
Events Fog , Snow    
Averages and records for this station are not official NWS values.
T = Trace of Precipitation, MM = Missing Value Source: NWS Daily Summary

Daily Weather History Graph

Daily Weather History Graph

Search for Another Location

Airport or City:

Trip Planner

Search our weather history database for the weather conditions in past years. The results will help you decide how hot, cold, wet, or windy it might be!

Date:

Astronomy

Feb. 24, 2012 Rise Set
Actual Time 6:55 AM PST 5:42 PM PST
Civil Twilight 6:24 AM PST 6:13 PM PST
Nautical Twilight 5:49 AM PST 6:48 PM PST
Astronomical Twilight 5:13 AM PST 7:24 PM PST
Moon 7:37 AM PST (2/24) 9:09 PM PST (2/24)
Length of Visible Light 11h 48m
Length of Day
10h 47m
Waxing Crescent, 8% of the Moon is Illuminated
Feb 24
Waxing Crescent
Feb 29
First Quarter
Mar 8
Full
Mar 14
Last Quarter
Mar 22
New

Hourly Weather History & Observations

Time (PST) Temp. Windchill Dew Point Humidity Pressure Visibility Wind Dir Wind Speed Gust Speed Precip Events Conditions
12:40 AM 26.6 °F - 24.8 °F 93% 30.15 in 1.2 mi Calm Calm - N/A   Overcast
1:36 AM 26.6 °F - 24.8 °F 93% 30.14 in 0.5 mi Calm Calm - N/A Fog Light Freezing Fog
4:23 AM 26.6 °F - 24.8 °F 93% 30.09 in 1.8 mi Calm Calm - 0.01 in   Overcast
5:11 AM 26.6 °F - 24.8 °F 93% 30.07 in 2.0 mi Calm Calm - N/A   Overcast
5:30 AM 26.6 °F - 24.8 °F 93% 30.07 in 1.5 mi Calm Calm - N/A   Overcast
8:32 AM 28.4 °F 23.3 °F 26.6 °F 93% 30.00 in 0.2 mi East 4.6 mph - N/A Fog Light Freezing Fog
9:56 AM 28.9 °F 23.9 °F 28.0 °F 96% 30.06 in 0.2 mi Variable 4.6 mph - N/A Fog Light Freezing Fog
10:56 AM 30.0 °F 23.2 °F 28.9 °F 96% 30.01 in 0.2 mi East 6.9 mph - N/A Fog Light Freezing Fog
11:56 AM 30.0 °F 26.5 °F 28.0 °F 92% 29.99 in 0.2 mi Variable 3.5 mph - 0.00 in Fog , Snow Light Snow
12:38 PM 30.2 °F 26.7 °F 28.4 °F 93% 29.86 in 0.5 mi Variable 3.5 mph - 0.02 in Fog , Snow Snow
12:56 PM 30.0 °F 25.2 °F 28.9 °F 96% 29.94 in 0.5 mi East 4.6 mph - 0.04 in Fog , Snow Snow
1:10 PM 30.2 °F 26.7 °F 28.4 °F 93% 29.83 in 0.2 mi Variable 3.5 mph - 0.01 in Fog , Snow Snow
1:56 PM 30.0 °F - 28.0 °F 92% 29.88 in 0.2 mi Calm Calm - 0.07 in Fog , Snow Light Snow
2:50 PM 30.2 °F - 28.4 °F 93% 29.76 in 0.5 mi Calm Calm - 0.05 in Fog , Snow Light Snow
2:56 PM 30.9 °F 27.5 °F 28.9 °F 92% 29.84 in 0.8 mi Variable 3.5 mph - 0.06 in Snow Light Snow
3:07 PM 30.2 °F 26.7 °F 30.2 °F 100% 29.75 in 0.2 mi ENE 3.5 mph - 0.01 in Fog , Snow Snow
3:27 PM 30.2 °F 25.4 °F 30.2 °F 100% 29.74 in 0.5 mi Variable 4.6 mph - 0.04 in Fog , Snow Light Snow
3:34 PM 32.0 °F - 30.2 °F 93% 29.73 in 1.2 mi Calm Calm - 0.04 in Snow Light Snow
3:42 PM 32.0 °F - 30.2 °F 93% 29.73 in 1.5 mi Calm Calm - 0.04 in Snow Light Snow
3:45 PM 32.0 °F - 30.2 °F 93% 29.72 in 3.0 mi Calm Calm - 0.04 in Snow Light Snow
3:56 PM 32.0 °F - 30.9 °F 96% 29.79 in 2.5 mi Calm Calm - 0.04 in Snow Light Snow
4:01 PM 32.0 °F - 30.2 °F 93% 29.71 in 1.0 mi Calm Calm - 0.00 in Snow Light Snow
4:05 PM 32.0 °F - 30.2 °F 93% 29.71 in 0.2 mi Calm Calm - 0.00 in Fog , Snow Light Snow
4:17 PM 32.0 °F - 30.2 °F 93% 29.70 in 0.5 mi Calm Calm - 0.01 in Fog , Snow Snow
4:31 PM 32.0 °F 27.5 °F 30.2 °F 93% 29.69 in 0.2 mi East 4.6 mph - 0.02 in Fog , Snow Snow
4:56 PM 30.9 °F - 30.0 °F 96% 29.73 in 0.2 mi Calm Calm - 0.04 in Fog , Snow Light Snow
4:59 PM 30.2 °F 26.7 °F 30.2 °F 100% 29.65 in 0.5 mi Variable 3.5 mph - 0.00 in Fog , Snow Light Snow
5:04 PM 30.2 °F - 30.2 °F 100% 29.65 in 1.5 mi Calm Calm - 0.00 in Snow Light Snow
5:14 PM 32.0 °F 27.5 °F 30.2 °F 93% 29.63 in 1.2 mi East 4.6 mph - 0.00 in Snow Light Snow
5:29 PM 32.0 °F 28.7 °F 30.2 °F 93% 29.62 in 0.2 mi Variable 3.5 mph - 0.01 in Fog , Snow Light Snow
5:38 PM 32.0 °F 28.7 °F 30.2 °F 93% 29.62 in 0.5 mi Variable 3.5 mph - 0.01 in Fog , Snow Light Snow
5:56 PM 32.0 °F - 30.0 °F 92% 29.69 in 0.8 mi Calm Calm - 0.02 in Snow Light Snow
6:18 PM 32.0 °F - 30.2 °F 93% 29.62 in 0.8 mi Calm Calm - 0.05 in Snow Light Snow
7:13 PM 32.0 °F 24.2 °F 30.2 °F 93% 29.59 in 1.2 mi West 9.2 mph 19.6 mph 0.01 in Snow Light Snow
7:30 PM 32.0 °F 23.6 °F 30.2 °F 93% 29.58 in 1.5 mi West 10.4 mph 24.2 mph 0.01 in Snow Light Snow
7:41 PM 32.0 °F 23.0 °F 30.2 °F 93% 29.57 in 2.0 mi West 11.5 mph 18.4 mph 0.02 in Snow Light Snow
7:56 PM 32.0 °F 27.5 °F 30.0 °F 92% 29.64 in 2.5 mi Variable 4.6 mph 17.3 mph 0.02 in Snow Light Snow
8:03 PM 32.0 °F 26.4 °F 30.2 °F 93% 29.56 in 4.0 mi Variable 5.8 mph - 0.00 in Snow Light Snow
8:28 PM 30.2 °F 26.7 °F 30.2 °F 100% 29.56 in 1.8 mi Variable 3.5 mph - 0.00 in Snow Light Snow
8:37 PM 30.2 °F 26.7 °F 30.2 °F 100% 29.56 in 0.8 mi Variable 3.5 mph - 0.00 in Snow Light Snow
8:48 PM 30.2 °F 26.7 °F 30.2 °F 100% 29.56 in 1.0 mi Variable 3.5 mph - 0.00 in   Overcast
8:56 PM 30.9 °F - 30.9 °F 100% 29.62 in 1.2 mi Calm Calm - 0.00 in   Overcast
9:03 PM 30.2 °F 26.7 °F 30.2 °F 100% 29.55 in 3.0 mi Variable 3.5 mph - N/A   Overcast
9:18 PM 30.2 °F 22.6 °F 30.2 °F 100% 29.54 in 9.0 mi West 8.1 mph - N/A   Overcast
9:56 PM 30.9 °F 23.5 °F 28.9 °F 92% 29.58 in 10.0 mi West 8.1 mph - N/A   Mostly Cloudy
10:22 PM 30.2 °F 23.4 °F 28.4 °F 93% 29.51 in 10.0 mi Variable 6.9 mph - N/A   Mostly Cloudy
10:56 PM 30.0 °F 22.4 °F 28.9 °F 96% 29.56 in 3.0 mi West 8.1 mph 21.9 mph 0.00 in Snow Light Snow
11:02 PM 30.2 °F 21.3 °F 28.4 °F 93% 29.49 in 2.0 mi West 10.4 mph 23.0 mph 0.00 in Snow Light Snow
11:07 PM 30.2 °F 22.6 °F 28.4 °F 93% 29.49 in 1.2 mi West 8.1 mph 23.0 mph 0.00 in Snow Light Snow
11:11 PM 30.2 °F 23.4 °F 28.4 °F 93% 29.49 in 0.8 mi Variable 6.9 mph 23.0 mph 0.01 in Snow Light Snow
11:23 PM 30.2 °F 24.3 °F 30.2 °F 100% 29.49 in 0.2 mi Variable 5.8 mph - 0.02 in Fog , Snow Snow
11:56 PM 30.0 °F 23.2 °F 28.9 °F 96% 29.56 in 0.5 mi Variable 6.9 mph - 0.06 in Fog , Snow Light Snow